[[{"header":{"parameterUnit":"m.s-1","parameterCategory":1,"la1":30.2992,"la2":30.254,"lo1":-89.0895,"lo2":-89.0443,"dy":0.0025,"dx":0.0025,"nx":19,"ny":19,"refTime":"2026-04-26T03:00:00:Z","depth":0,"parameterNumber":2,"parameterNumberName":"U-component_of_WINDS"},"data":[0,0,0,2.7699,2.7704,2.7955,2.7956,2.8279,2.8282,0,0,0,0,0,0,0,0,0,0,0,2.7623,2.7625,2.7698,2.7704,2.7955,2.7956,2.8278,2.8282,0,0,0,0,0,0,0,0,0,0,0,2.7622,2.7624,2.7627,2.7705,2.7954,2.7956,2.8278,2.8088,0,0,0,0,0,0,0,0,0,0,2.7845,2.7772,2.7624,2.7627,2.7707,2.7954,2.7956,2.8079,2.81,2.8165,0,2.822,0,2.8255,2.8303,2.8304,0,0,0,2.7707,2.7755,2.7823,2.7627,2.7709,2.7954,2.7842,2.8091,2.8115,2.8193,2.8224,2.8236,2.8261,2.8305,2.8307,2.8664,2.8666,0,0,2.7693,2.7668,2.7807,2.7839,2.7796,2.7834,2.785,2.8105,2.8139,2.8225,2.8244,2.8266,2.8307,2.831,2.8663,2.8665,0,0,0,2.7652,2.7658,2.772,2.7825,2.787,2.7841,2.786,2.8128,2.815,2.8247,2.827,2.8309,2.8313,2.8661,2.8663,2.8713,0,0,0,2.7643,2.7634,2.7714,2.7702,2.7865,2.8002,2.7876,2.8132,2.8162,2.8268,2.8309,2.8316,2.8659,2.8662,2.8708,2.8742,0,0,0,2.7607,2.763,2.7665,2.77,2.7806,2.7998,2.8035,2.8139,2.8176,2.8305,2.8317,2.8658,2.8662,2.8704,2.8735,2.8827,0,0,0,2.7562,2.7709,2.7665,2.7838,2.7804,2.8026,2.8033,2.8201,2.8318,2.8311,2.866,2.8663,2.8702,2.873,2.8822,2.8899,2.8929,0,0,2.7734,2.7729,2.7833,2.7801,2.8023,2.799,2.8222,2.8354,2.8392,2.8572,2.8581,2.871,2.8734,2.8826,2.9107,2.913,0,0,0,2.7879,2.7952,2.8017,2.8124,2.8226,2.8317,2.8416,2.8465,2.8618,2.8478,2.877,2.8785,2.884,2.8878,2.8898,2.8947,2.868,2.8679,2.8679,2.8086,2.8122,2.8296,2.8362,2.8466,2.8565,2.8654,2.8737,2.8747,2.8815,2.8869,2.9034,2.9078,2.9093,2.9143,2.8913,2.8913,2.8914,2.8914,2.834,2.845,2.8455,2.8625,2.8663,2.8808,2.891,2.8911,2.9053,2.8997,2.9048,2.8983,2.9117,2.9163,2.8918,2.8917,2.8917,2.8916,2.8916,2.8479,2.8538,2.8592,2.8749,2.8867,2.8931,2.9065,2.9097,2.9128,2.9178,2.9237,2.9236,2.9239,2.9204,2.9204,2.9205,2.9205,2.9206,2.9206,2.8602,2.8661,2.8769,2.8887,2.8959,2.9058,2.9158,2.9231,2.932,2.9333,2.9334,2.9336,2.9123,2.9068,2.9215,2.9214,2.9212,2.9212,2.9211,2.8844,2.8794,2.8959,2.9031,2.9172,2.9287,2.9324,2.947,2.9535,2.96,2.9592,2.9429,2.9428,2.9413,2.9367,2.9583,2.9583,2.9583,2.9583,2.8961,2.8962,2.9137,2.9249,2.9364,2.9413,2.9602,2.9681,2.9756,2.9799,2.9772,2.9716,2.9698,2.9708,2.9686,2.9644,2.9925,2.9925,2.9926,2.9112,2.9125,2.9277,2.9345,2.9458,2.9555,2.9732,2.9863,2.9939,2.994,2.9833,2.9819,2.9727,2.9696,2.9695,2.966,2.9585,0,0]},{"header":{"parameterUnit":"m.s-1","parameterCategory":1,"la1":30.2992,"la2":30.254,"lo1":-89.0895,"lo2":-89.0443,"dy":0.0025,"dx":0.0025,"nx":19,"ny":19,"refTime":"2026-04-26T03:00:00:Z","depth":0,"parameterNumber":3,"parameterNumberName":"V-component_of_WINDS"},"data":[0,0,0,3.3578,3.3579,3.364,3.364,3.3729,3.373,0,0,0,0,0,0,0,0,0,0,0,3.3568,3.3569,3.3578,3.3579,3.364,3.364,3.3729,3.373,0,0,0,0,0,0,0,0,0,0,0,3.3568,3.3569,3.357,3.358,3.364,3.364,3.3728,3.3678,0,0,0,0,0,0,0,0,0,0,3.3617,3.3618,3.3569,3.357,3.358,3.3639,3.364,3.3676,3.3681,3.3707,0,3.3733,0,3.3733,3.3736,3.3737,0,0,0,3.3572,3.3613,3.3622,3.357,3.3581,3.3639,3.361,3.3679,3.3685,3.3715,3.3734,3.3737,3.3734,3.3737,3.3738,3.391,3.3911,0,0,3.3569,3.3584,3.3617,3.3626,3.3619,3.3609,3.3612,3.3682,3.3704,3.3735,3.3739,3.3736,3.3738,3.3739,3.3909,3.391,0,0,0,3.3564,3.3582,3.3588,3.3623,3.3633,3.361,3.3615,3.3701,3.3702,3.374,3.3737,3.3738,3.374,3.3908,3.391,3.398,0,0,0,3.3562,3.3579,3.3587,3.3597,3.3632,3.3668,3.3632,3.3697,3.3705,3.3737,3.3738,3.3741,3.3907,3.3909,3.3975,3.4011,0,0,0,3.3561,3.3579,3.359,3.3597,3.3624,3.3667,3.3672,3.3699,3.3703,3.3737,3.3741,3.3906,3.3908,3.3971,3.4004,3.4061,0,0,0,3.3565,3.3652,3.3592,3.3687,3.3624,3.371,3.3671,3.3734,3.3772,3.3739,3.3907,3.3909,3.397,3.4,3.4056,3.4111,3.4135,0,0,3.3683,3.3667,3.3721,3.3669,3.3771,3.37,3.3811,3.383,3.3819,3.388,3.3884,3.3977,3.4003,3.406,3.4265,3.4285,0,0,0,3.3764,3.3803,3.3827,3.3863,3.3881,3.3898,3.39,3.3907,3.3958,3.3854,3.4012,3.4027,3.406,3.4085,3.4102,3.4128,3.3922,3.3922,3.3921,3.3951,3.3933,3.4023,3.4012,3.4047,3.4047,3.4074,3.4083,3.4054,3.4092,3.411,3.4237,3.4268,3.428,3.4308,3.4137,3.4137,3.4138,3.4138,3.4122,3.4175,3.4134,3.4207,3.4186,3.4246,3.4249,3.4226,3.4278,3.4222,3.425,3.4191,3.4302,3.4325,3.4143,3.4142,3.4141,3.4141,3.414,3.4243,3.4266,3.4273,3.4323,3.4364,3.4348,3.4401,3.438,3.4361,3.4388,3.4404,3.4403,3.4399,3.4397,3.4397,3.4398,3.4398,3.4399,3.4399,3.4366,3.4372,3.4419,3.4445,3.4465,3.4489,3.4489,3.4507,3.4523,3.4504,3.4504,3.4471,3.4316,3.4278,3.4406,3.4404,3.4404,3.4403,3.4402,3.4547,3.4503,3.4575,3.4596,3.4623,3.4664,3.4637,3.4677,3.4689,3.4715,3.4676,3.4565,3.4547,3.4533,3.4502,3.468,3.468,3.468,3.468,3.465,3.4638,3.4707,3.4741,3.4771,3.4754,3.4835,3.4835,3.4828,3.4835,3.4806,3.4761,3.4749,3.4738,3.472,3.469,3.4912,3.4913,3.4913,3.4759,3.475,3.4824,3.4817,3.4837,3.4854,3.4929,3.4968,3.4951,3.4922,3.4839,3.4829,3.4758,3.4735,3.4705,3.4678,3.4623,0,0]}]]